| time (UTC) | temp F | wind direction | speed MPH | gust MPH | rain 1hr in | rain 24hr in | rain mn in | humidity % | barometer mb |
| 20260503041120 | 48 | 270 | 0.0 | 0.0 | 0.00 | 0.00 | 0.00 | 90 | 1025.0 |
| 20260503040620 | 48 | 135 | 0.0 | 0.0 | 0.00 | 0.00 | 0.00 | 90 | 1025.0 |
| 20260503040120 | 48 | 180 | 0.0 | 0.0 | 0.00 | 0.00 | 0.00 | 91 | 1025.0 |
| 20260503035620 | 48 | 315 | 0.0 | 0.0 | 0.00 | 0.00 | 0.06 | 91 | 1025.0 |
| 20260503034651 | 48 | 158 | 0.0 | 0.0 | 0.00 | 0.00 | 0.06 | 91 | 1025.0 |
| 20260503034121 | 48 | 248 | 0.0 | 0.0 | 0.00 | 0.00 | 0.06 | 91 | 1025.0 |
| 20260503033620 | 48 | 248 | 0.0 | 0.0 | 0.00 | 0.00 | 0.06 | 90 | 1025.0 |
| 20260503033120 | 48 | 248 | 0.0 | 0.0 | 0.00 | 0.00 | 0.06 | 90 | 1025.0 |
| 20260503032620 | 48 | 248 | 0.0 | 0.0 | 0.00 | 0.00 | 0.06 | 90 | 1025.0 |
| 20260503032121 | 48 | 248 | 0.0 | 0.0 | 0.00 | 0.00 | 0.06 | 90 | 1025.0 |
| 20260503031620 | 48 | 158 | 0.0 | 0.0 | 0.00 | 0.00 | 0.06 | 90 | 1025.0 |
| 20260503031120 | 48 | 158 | 0.0 | 0.0 | 0.00 | 0.00 | 0.06 | 90 | 1025.0 |
| 20260503030620 | 48 | 270 | 0.0 | 0.0 | 0.00 | 0.00 | 0.06 | 90 | 1025.0 |
| 20260503030121 | 48 | 270 | 0.0 | 0.0 | 0.00 | 0.00 | 0.06 | 90 | 1025.0 |
| 20260503025620 | 48 | 270 | 0.0 | 0.0 | 0.00 | 0.00 | 0.06 | 90 | 1025.0 |
| 20260503025120 | 48 | 203 | 0.0 | 0.0 | 0.00 | 0.00 | 0.06 | 90 | 1025.0 |
| 20260503024621 | 48 | 270 | 0.0 | 0.0 | 0.00 | 0.00 | 0.06 | 90 | 1025.0 |
| 20260503024120 | 48 | 315 | 0.0 | 0.0 | 0.00 | 0.00 | 0.06 | 90 | 1025.0 |
| 20260503023620 | 48 | 270 | 0.0 | 0.0 | 0.00 | 0.00 | 0.06 | 90 | 1025.0 |
| 20260503023120 | 48 | 270 | 0.0 | 0.0 | 0.00 | 0.00 | 0.06 | 90 | 1025.0 |
| 20260503022620 | 48 | 248 | 0.0 | 0.0 | 0.00 | 0.00 | 0.06 | 90 | 1025.0 |
| 20260503022120 | 48 | 248 | 0.0 | 0.0 | 0.00 | 0.00 | 0.06 | 90 | 1025.0 |
| 20260503021620 | 48 | 270 | 0.0 | 0.0 | 0.00 | 0.00 | 0.06 | 90 | 1025.0 |
| 20260503021120 | 48 | 270 | 0.0 | 0.0 | 0.00 | 0.00 | 0.06 | 90 | 1025.0 |
| 20260503020620 | 48 | 270 | 0.0 | 0.0 | 0.00 | 0.00 | 0.06 | 89 | 1025.0 |
| 20260503020120 | 48 | 270 | 0.0 | 0.0 | 0.00 | 0.00 | 0.06 | 89 | 1025.0 |
| 20260503015620 | 48 | 270 | 0.0 | 0.0 | 0.00 | 0.00 | 0.06 | 89 | 1025.0 |
| 20260503015120 | 48 | 270 | 0.0 | 0.0 | 0.00 | 0.00 | 0.06 | 89 | 1025.0 |
| 20260503014620 | 48 | 270 | 0.0 | 0.0 | 0.00 | 0.00 | 0.06 | 89 | 1025.0 |
| 20260503014121 | 48 | 270 | 0.0 | 0.0 | 0.00 | 0.00 | 0.06 | 89 | 1025.0 |
| 20260503013620 | 49 | 293 | 0.0 | 0.0 | 0.00 | 0.00 | 0.06 | 89 | 1026.0 |
| 20260503013120 | 49 | 248 | 0.0 | 0.0 | 0.00 | 0.00 | 0.06 | 88 | 1025.0 |
| 20260503012621 | 49 | 315 | 0.0 | 0.0 | 0.00 | 0.00 | 0.06 | 88 | 1025.0 |
| 20260503012120 | 49 | 315 | 0.0 | 0.0 | 0.00 | 0.00 | 0.06 | 88 | 1025.0 |
| 20260503011621 | 49 | 315 | 0.0 | 0.0 | 0.00 | 0.00 | 0.06 | 88 | 1025.0 |
| 20260503011120 | 49 | 315 | 0.0 | 0.0 | 0.00 | 0.00 | 0.06 | 88 | 1025.0 |
| 20260503010621 | 49 | 293 | 0.0 | 0.0 | 0.00 | 0.00 | 0.06 | 87 | 1025.0 |
| 20260503010122 | 49 | 293 | 0.0 | 0.0 | 0.00 | 0.00 | 0.06 | 87 | 1025.0 |
| 20260503005620 | 49 | 293 | 0.0 | 0.0 | 0.00 | 0.00 | 0.06 | 87 | 1025.0 |
| 20260503005121 | 49 | 293 | 0.0 | 0.0 | 0.00 | 0.00 | 0.06 | 87 | 1025.0 |
| 20260503004620 | 49 | 293 | 0.0 | 0.0 | 0.00 | 0.00 | 0.06 | 87 | 1025.0 |
| 20260503004121 | 49 | 293 | 0.0 | 0.0 | 0.00 | 0.00 | 0.06 | 87 | 1025.0 |
| 20260503003620 | 49 | 293 | 0.0 | 0.0 | 0.00 | 0.00 | 0.06 | 86 | 1025.0 |
| 20260503003120 | 49 | 315 | 0.0 | 0.0 | 0.00 | 0.00 | 0.06 | 86 | 1025.0 |
| 20260503002621 | 49 | 270 | 0.0 | 0.0 | 0.00 | 0.00 | 0.06 | 86 | 1025.0 |
| 20260503002120 | 49 | 203 | 0.0 | 0.0 | 0.00 | 0.00 | 0.06 | 86 | 1025.0 |
| 20260503001620 | 49 | 90 | 0.0 | 0.0 | 0.00 | 0.00 | 0.06 | 86 | 1025.0 |
| 20260503001120 | 49 | 315 | 0.0 | 0.0 | 0.00 | 0.00 | 0.06 | 86 | 1025.0 |
| 20260503000620 | 50 | 293 | 0.0 | 0.0 | 0.00 | 0.00 | 0.06 | 85 | 1025.0 |
| 20260503000120 | 50 | 293 | 0.0 | 0.0 | 0.00 | 0.00 | 0.06 | 85 | 1025.0 |
| 20260502235620 | 50 | 293 | 0.0 | 0.0 | 0.00 | 0.00 | 0.06 | 85 | 1025.0 |
| 20260502235121 | 50 | 293 | 0.0 | 0.0 | 0.00 | 0.00 | 0.06 | 84 | 1025.0 |
| 20260502234620 | 50 | 45 | 0.0 | 0.0 | 0.00 | 0.00 | 0.06 | 84 | 1025.0 |
| 20260502234120 | 50 | 225 | 0.0 | 0.0 | 0.00 | 0.00 | 0.06 | 83 | 1025.0 |
| 20260502233620 | 50 | 23 | 0.0 | 0.0 | 0.00 | 0.00 | 0.06 | 83 | 1025.0 |
| 20260502233120 | 50 | 270 | 0.0 | 0.0 | 0.00 | 0.00 | 0.06 | 83 | 1025.0 |
| 20260502232620 | 50 | 0 | 0.0 | 0.0 | 0.00 | 0.00 | 0.06 | 83 | 1025.0 |
| 20260502232120 | 51 | 248 | 0.0 | 0.0 | 0.00 | 0.00 | 0.06 | 82 | 1025.0 |
| 20260502231620 | 51 | 270 | 0.0 | 0.0 | 0.00 | 0.00 | 0.06 | 81 | 1025.0 |
| 20260502231120 | 51 | 90 | 0.0 | 0.0 | 0.00 | 0.00 | 0.06 | 81 | 1025.0 |
| 20260502230623 | 51 | 293 | 0.0 | 0.0 | 0.00 | 0.00 | 0.06 | 82 | 1025.0 |
| 20260502230120 | 51 | 315 | 1.0 | 2.0 | 0.00 | 0.00 | 0.06 | 81 | 1025.0 |
| 20260502225620 | 51 | 0 | 0.0 | 0.0 | 0.00 | 0.00 | 0.06 | 80 | 1025.0 |
| 20260502225120 | 51 | 68 | 0.0 | 0.0 | 0.00 | 0.00 | 0.06 | 80 | 1025.0 |
| 20260502224621 | 51 | 113 | 0.0 | 0.0 | 0.00 | 0.00 | 0.06 | 80 | 1025.0 |
| 20260502224120 | 51 | 90 | 0.0 | 0.0 | 0.00 | 0.00 | 0.06 | 80 | 1025.0 |
| 20260502223620 | 52 | 90 | 0.0 | 0.0 | 0.00 | 0.00 | 0.06 | 79 | 1025.0 |
| 20260502223121 | 52 | 0 | 0.0 | 0.0 | 0.00 | 0.00 | 0.06 | 78 | 1025.0 |
| 20260502222620 | 52 | 113 | 0.0 | 0.0 | 0.00 | 0.00 | 0.06 | 78 | 1025.0 |
| 20260502222120 | 52 | 180 | 0.0 | 0.0 | 0.00 | 0.00 | 0.06 | 77 | 1025.0 |
| 20260502221621 | 52 | 90 | 0.0 | 0.0 | 0.00 | 0.00 | 0.06 | 77 | 1025.0 |
| 20260502221120 | 52 | 113 | 0.0 | 0.0 | 0.00 | 0.00 | 0.06 | 78 | 1025.0 |
| 20260502220620 | 52 | 90 | 0.0 | 1.0 | 0.00 | 0.00 | 0.06 | 78 | 1025.0 |
| 20260502220120 | 53 | 0 | 0.0 | 0.0 | 0.00 | 0.00 | 0.06 | 77 | 1025.0 |
| 20260502215620 | 53 | 68 | 0.0 | 0.0 | 0.00 | 0.00 | 0.06 | 77 | 1025.0 |
| 20260502215120 | 53 | 180 | 0.0 | 0.0 | 0.00 | 0.00 | 0.06 | 76 | 1025.0 |
| 20260502214621 | 53 | 68 | 0.0 | 0.0 | 0.00 | 0.00 | 0.06 | 78 | 1025.0 |
| 20260502214120 | 53 | 270 | 1.0 | 2.0 | 0.00 | 0.00 | 0.06 | 78 | 1025.0 |
| 20260502213620 | 53 | 338 | 2.0 | 3.0 | 0.00 | 0.00 | 0.06 | 76 | 1025.0 |
| 20260502213121 | 53 | 0 | 0.0 | 0.0 | 0.00 | 0.00 | 0.06 | 76 | 1025.0 |
| 20260502212620 | 53 | 68 | 0.0 | 1.0 | 0.00 | 0.00 | 0.06 | 78 | 1025.0 |
| 20260502212120 | 53 | 315 | 1.0 | 2.0 | 0.00 | 0.00 | 0.06 | 76 | 1025.0 |
| 20260502211620 | 52 | 338 | 2.0 | 3.0 | 0.00 | 0.00 | 0.06 | 76 | 1025.0 |
| 20260502211121 | 52 | 293 | 0.0 | 0.0 | 0.00 | 0.00 | 0.06 | 79 | 1025.0 |
| 20260502210620 | 52 | 203 | 1.0 | 2.0 | 0.00 | 0.00 | 0.06 | 76 | 1025.0 |
| 20260502210120 | 52 | 68 | 0.0 | 1.0 | 0.00 | 0.00 | 0.06 | 78 | 1025.0 |
| 20260502205621 | 52 | 23 | 1.0 | 2.0 | 0.00 | 0.00 | 0.06 | 80 | 1025.0 |
| 20260502205120 | 52 | 270 | 1.0 | 2.0 | 0.00 | 0.00 | 0.06 | 77 | 1025.0 |
| 20260502204620 | 52 | 270 | 1.0 | 3.0 | 0.00 | 0.00 | 0.06 | 78 | 1025.0 |
| 20260502204120 | 52 | 90 | 4.0 | 7.0 | 0.00 | 0.00 | 0.06 | 75 | 1025.0 |
| 20260502203620 | 52 | 158 | 0.0 | 0.0 | 0.00 | 0.00 | 0.06 | 77 | 1025.0 |
| 20260502203120 | 52 | 315 | 1.0 | 2.0 | 0.00 | 0.00 | 0.06 | 77 | 1025.0 |
| 20260502202620 | 52 | 68 | 0.0 | 0.0 | 0.00 | 0.00 | 0.06 | 77 | 1025.0 |
| 20260502202120 | 52 | 45 | 0.0 | 1.0 | 0.00 | 0.00 | 0.06 | 76 | 1025.0 |
| 20260502201620 | 52 | 135 | 1.0 | 2.0 | 0.00 | 0.00 | 0.06 | 76 | 1025.0 |
| 20260502201120 | 52 | 315 | 0.0 | 0.0 | 0.00 | 0.00 | 0.06 | 75 | 1025.0 |
| 20260502200621 | 53 | 0 | 0.0 | 2.0 | 0.00 | 0.00 | 0.06 | 75 | 1025.0 |
| 20260502200120 | 53 | 113 | 1.0 | 2.0 | 0.00 | 0.00 | 0.06 | 75 | 1025.0 |
| 20260502195620 | 53 | 270 | 2.0 | 3.0 | 0.00 | 0.00 | 0.06 | 75 | 1025.0 |
| 20260502195120 | 53 | 0 | 1.0 | 2.0 | 0.00 | 0.00 | 0.06 | 76 | 1025.0 |
| 20260502194620 | 52 | 315 | 1.0 | 3.0 | 0.00 | 0.00 | 0.06 | 72 | 1025.0 |
| 20260502194120 | 53 | 315 | 1.0 | 2.0 | 0.00 | 0.00 | 0.06 | 73 | 1026.0 |
| 20260502193629 | 53 | 68 | 0.0 | 1.0 | 0.00 | 0.00 | 0.06 | 73 | 1026.0 |
| 20260502193121 | 52 | 158 | 0.0 | 0.0 | 0.00 | 0.00 | 0.06 | 73 | 1026.0 |
| 20260502192620 | 52 | 90 | 0.0 | 0.0 | 0.00 | 0.00 | 0.06 | 74 | 1026.0 |
| 20260502192121 | 52 | 293 | 0.0 | 1.0 | 0.00 | 0.00 | 0.06 | 70 | 1026.0 |
| 20260502191621 | 53 | 0 | 1.0 | 2.0 | 0.00 | 0.00 | 0.06 | 72 | 1026.0 |
| 20260502191120 | 53 | 180 | 2.0 | 3.0 | 0.00 | 0.00 | 0.06 | 83 | 1026.0 |
| 20260502190620 | 53 | 158 | 0.0 | 0.0 | 0.00 | 0.00 | 0.06 | 85 | 1026.0 |
| 20260502190120 | 52 | 90 | 0.0 | 0.0 | 0.00 | 0.00 | 0.06 | 84 | 1026.0 |
| 20260502185620 | 52 | 23 | 0.0 | 0.0 | 0.02 | 0.00 | 0.06 | 87 | 1026.0 |
| 20260502185120 | 52 | 270 | 0.0 | 0.0 | 0.02 | 0.00 | 0.06 | 87 | 1026.0 |
| 20260502184621 | 52 | 248 | 0.0 | 0.0 | 0.02 | 0.00 | 0.06 | 88 | 1026.0 |
| 20260502184120 | 51 | 225 | 0.0 | 0.0 | 0.02 | 0.00 | 0.06 | 87 | 1026.0 |
| 20260502183621 | 50 | 90 | 0.0 | 0.0 | 0.02 | 0.00 | 0.06 | 89 | 1026.0 |
| 20260502183120 | 50 | 90 | 0.0 | 0.0 | 0.02 | 0.00 | 0.06 | 87 | 1026.0 |
| 20260502182620 | 50 | 203 | 0.0 | 0.0 | 0.02 | 0.00 | 0.06 | 87 | 1026.0 |
| 20260502182120 | 50 | 270 | 0.0 | 0.0 | 0.02 | 0.00 | 0.06 | 88 | 1026.0 |
| 20260502181621 | 50 | 270 | 0.0 | 0.0 | 0.02 | 0.00 | 0.06 | 86 | 1026.0 |
| 20260502181120 | 50 | 293 | 0.0 | 0.0 | 0.01 | 0.00 | 0.05 | 84 | 1026.0 |
| 20260502180620 | 50 | 68 | 0.0 | 0.0 | 0.01 | 0.00 | 0.05 | 83 | 1026.0 |
| 20260502180120 | 51 | 270 | 0.0 | 0.0 | 0.00 | 0.00 | 0.04 | 79 | 1026.0 |
| 20260502170124 | 56 | 113 | 1.0 | 3.0 | 0.00 | 0.00 | 0.00 | 63 | 1026.0 |
| 20260502164121 | 57 | 158 | 1.0 | 3.0 | 0.00 | 0.00 | 0.00 | 63 | 1026.0 |
| 20260502163620 | 57 | 135 | 2.0 | 3.0 | 0.00 | 0.00 | 0.00 | 60 | 1026.0 |
| 20260502163120 | 56 | 90 | 0.0 | 0.0 | 0.00 | 0.00 | 0.00 | 62 | 1026.0 |
| 20260502162620 | 56 | 90 | 0.0 | 0.0 | 0.00 | 0.00 | 0.00 | 64 | 1026.0 |
| 20260502162120 | 56 | 225 | 2.0 | 3.0 | 0.00 | 0.00 | 0.00 | 64 | 1026.0 |
| 20260502161620 | 57 | 135 | 1.0 | 2.0 | 0.00 | 0.00 | 0.00 | 61 | 1026.0 |
| 20260502161120 | 57 | 180 | 2.0 | 3.0 | 0.00 | 0.00 | 0.00 | 59 | 1026.0 |
| 20260502160620 | 58 | 23 | 3.0 | 4.0 | 0.00 | 0.00 | 0.00 | 57 | 1026.0 |
| 20260502160121 | 58 | 225 | 2.0 | 3.0 | 0.00 | 0.00 | 0.00 | 61 | 1026.0 |
| 20260502152120 | 57 | 293 | 0.0 | 0.0 | 0.00 | 0.00 | 0.00 | 68 | 1027.0 |
| 20260502151620 | 56 | 180 | 0.0 | 0.0 | 0.00 | 0.00 | 0.00 | 72 | 1027.0 |
| 20260502151120 | 56 | 0 | 0.0 | 0.0 | 0.00 | 0.00 | 0.00 | 68 | 1027.0 |
| 20260502150620 | 56 | 68 | 0.0 | 0.0 | 0.00 | 0.00 | 0.00 | 68 | 1027.0 |
| 20260502150120 | 57 | 248 | 0.0 | 0.0 | 0.00 | 0.00 | 0.00 | 68 | 1027.0 |
| 20260502140121 | 54 | 270 | 0.0 | 0.0 | 0.00 | 0.00 | 0.00 | 70 | 1027.0 |
| 20260502130620 | 52 | 225 | 1.0 | 2.0 | 0.00 | 0.00 | 0.00 | 78 | 1027.0 |
| 20260502130120 | 51 | 90 | 0.0 | 0.0 | 0.00 | 0.00 | 0.00 | 77 | 1027.0 |
| 20260502123620 | 51 | 248 | 1.0 | 2.0 | 0.00 | 0.00 | 0.00 | 76 | 1028.0 |
| 20260502123120 | 51 | 248 | 2.0 | 3.0 | 0.00 | 0.00 | 0.00 | 75 | 1027.0 |
| 20260502122623 | 51 | 135 | 3.0 | 3.0 | 0.00 | 0.00 | 0.00 | 74 | 1027.0 |
| 20260502122120 | 51 | 225 | 2.0 | 3.0 | 0.00 | 0.00 | 0.00 | 74 | 1027.0 |
| 20260502121620 | 51 | 135 | 0.0 | 1.0 | 0.00 | 0.00 | 0.00 | 75 | 1027.0 |
| 20260502121120 | 51 | 203 | 0.0 | 0.0 | 0.00 | 0.00 | 0.00 | 76 | 1027.0 |
| 20260502120620 | 50 | 23 | 0.0 | 1.0 | 0.00 | 0.00 | 0.00 | 77 | 1027.0 |
| 20260502120120 | 50 | 293 | 2.0 | 3.0 | 0.00 | 0.00 | 0.00 | 78 | 1027.0 |
| 20260502115620 | 49 | 315 | 0.0 | 0.0 | 0.00 | 0.00 | 0.00 | 78 | 1027.0 |
| 20260502115121 | 49 | 113 | 0.0 | 0.0 | 0.00 | 0.00 | 0.00 | 79 | 1027.0 |
| 20260502114620 | 49 | 203 | 0.0 | 1.0 | 0.00 | 0.00 | 0.00 | 79 | 1027.0 |
| 20260502114120 | 49 | 45 | 0.0 | 1.0 | 0.00 | 0.00 | 0.00 | 78 | 1027.0 |
| 20260502113620 | 49 | 270 | 0.0 | 0.0 | 0.00 | 0.00 | 0.00 | 78 | 1027.0 |
| 20260502113120 | 48 | 23 | 0.0 | 0.0 | 0.00 | 0.00 | 0.00 | 79 | 1027.0 |
| 20260502112620 | 48 | 248 | 0.0 | 0.0 | 0.00 | 0.00 | 0.00 | 82 | 1027.0 |
| 20260502112121 | 48 | 23 | 2.0 | 3.0 | 0.00 | 0.00 | 0.00 | 80 | 1027.0 |
| 20260502111620 | 47 | 270 | 0.0 | 0.0 | 0.00 | 0.00 | 0.00 | 81 | 1027.0 |
| 20260502111121 | 47 | 248 | 0.0 | 0.0 | 0.00 | 0.00 | 0.00 | 83 | 1027.0 |
| 20260502110620 | 47 | 68 | 0.0 | 0.0 | 0.00 | 0.00 | 0.00 | 81 | 1027.0 |
| 20260502110120 | 47 | 270 | 0.0 | 0.0 | 0.00 | 0.00 | 0.00 | 81 | 1027.0 |
| 20260502105621 | 47 | 0 | 0.0 | 1.0 | 0.00 | 0.00 | 0.00 | 82 | 1027.0 |
| 20260502105120 | 47 | 248 | 0.0 | 0.0 | 0.00 | 0.00 | 0.00 | 81 | 1027.0 |
| 20260502104621 | 47 | 225 | 0.0 | 0.0 | 0.00 | 0.00 | 0.00 | 80 | 1027.0 |
| 20260502104121 | 47 | 248 | 0.0 | 1.0 | 0.00 | 0.00 | 0.00 | 82 | 1027.0 |
| 20260502103620 | 47 | 270 | 0.0 | 0.0 | 0.00 | 0.00 | 0.00 | 80 | 1027.0 |
| 20260502103121 | 47 | 248 | 0.0 | 0.0 | 0.00 | 0.00 | 0.00 | 82 | 1027.0 |
| 20260502102620 | 47 | 248 | 3.0 | 4.0 | 0.00 | 0.00 | 0.00 | 80 | 1026.0 |
| 20260502102120 | 46 | 338 | 0.0 | 0.0 | 0.00 | 0.00 | 0.00 | 83 | 1027.0 |
| 20260502101621 | 46 | 315 | 0.0 | 0.0 | 0.00 | 0.00 | 0.00 | 83 | 1026.0 |
| 20260502101120 | 46 | 225 | 0.0 | 0.0 | 0.00 | 0.00 | 0.00 | 83 | 1026.0 |
| 20260502100620 | 45 | 0 | 0.0 | 0.0 | 0.00 | 0.00 | 0.00 | 83 | 1026.0 |
| 20260502100120 | 45 | 0 | 0.0 | 0.0 | 0.00 | 0.00 | 0.00 | 83 | 1027.0 |
| 20260502091121 | 46 | 248 | 0.0 | 0.0 | 0.00 | 0.00 | 0.00 | 79 | 1026.0 |
| 20260502090620 | 47 | 293 | 0.0 | 0.0 | 0.00 | 0.00 | 0.00 | 79 | 1026.0 |
| 20260502090120 | 47 | 293 | 0.0 | 0.0 | 0.00 | 0.00 | 0.00 | 79 | 1026.0 |
| 20260502071120 | 47 | 293 | 0.0 | 0.0 | 0.00 | 0.00 | 0.00 | 72 | 1026.0 |
| 20260502070620 | 47 | 293 | 0.0 | 0.0 | 0.00 | 0.00 | 0.00 | 72 | 1026.0 |
| 20260502070120 | 47 | 248 | 0.0 | 0.0 | 0.00 | 0.00 | 0.00 | 72 | 1026.0 |
| 20260502065620 | 47 | 248 | 0.0 | 0.0 | 0.00 | 0.00 | 0.00 | 71 | 1027.0 |
| 20260502065121 | 47 | 248 | 0.0 | 0.0 | 0.00 | 0.00 | 0.00 | 71 | 1026.0 |
| 20260502064620 | 47 | 225 | 0.0 | 0.0 | 0.00 | 0.00 | 0.00 | 71 | 1027.0 |
| 20260502064120 | 47 | 248 | 0.0 | 0.0 | 0.00 | 0.00 | 0.00 | 71 | 1026.0 |
| 20260502063621 | 47 | 135 | 0.0 | 0.0 | 0.00 | 0.00 | 0.00 | 72 | 1027.0 |
| 20260502063120 | 46 | 270 | 0.0 | 0.0 | 0.00 | 0.00 | 0.00 | 72 | 1027.0 |
| 20260502062620 | 46 | 23 | 0.0 | 0.0 | 0.00 | 0.00 | 0.00 | 73 | 1027.0 |
| 20260502062120 | 46 | 270 | 0.0 | 0.0 | 0.00 | 0.00 | 0.00 | 73 | 1027.0 |
| 20260502061620 | 46 | 270 | 0.0 | 0.0 | 0.00 | 0.00 | 0.00 | 73 | 1026.0 |
| 20260502061120 | 46 | 270 | 0.0 | 0.0 | 0.00 | 0.00 | 0.00 | 73 | 1026.0 |
| 20260502060621 | 46 | 248 | 0.0 | 0.0 | 0.00 | 0.00 | 0.00 | 73 | 1026.0 |
| 20260502060120 | 45 | 293 | 0.0 | 0.0 | 0.00 | 0.00 | 0.00 | 72 | 1027.0 |
| 20260502055620 | 45 | 338 | 0.0 | 0.0 | 0.00 | 0.00 | 0.00 | 73 | 1027.0 |
| 20260502055121 | 45 | 248 | 0.0 | 0.0 | 0.00 | 0.00 | 0.00 | 72 | 1027.0 |
| 20260502054620 | 45 | 68 | 0.0 | 0.0 | 0.00 | 0.00 | 0.00 | 70 | 1027.0 |
| 20260502054121 | 46 | 68 | 0.0 | 0.0 | 0.00 | 0.00 | 0.00 | 69 | 1027.0 |
| 20260502053620 | 46 | 68 | 0.0 | 0.0 | 0.00 | 0.00 | 0.00 | 69 | 1026.0 |
| 20260502053120 | 46 | 68 | 0.0 | 0.0 | 0.00 | 0.00 | 0.00 | 68 | 1027.0 |
| 20260502052620 | 46 | 68 | 0.0 | 0.0 | 0.00 | 0.00 | 0.00 | 68 | 1027.0 |
| 20260502052120 | 46 | 68 | 0.0 | 0.0 | 0.00 | 0.00 | 0.00 | 67 | 1027.0 |
| 20260502051620 | 47 | 68 | 0.0 | 0.0 | 0.00 | 0.00 | 0.00 | 67 | 1027.0 |
| 20260502051120 | 47 | 68 | 0.0 | 0.0 | 0.00 | 0.00 | 0.00 | 67 | 1027.0 |
| 20260502050620 | 47 | 68 | 0.0 | 0.0 | 0.00 | 0.00 | 0.00 | 65 | 1027.0 |
| 20260502050120 | 47 | 68 | 0.0 | 0.0 | 0.00 | 0.00 | 0.00 | 66 | 1027.0 |
| 20260502045621 | 47 | 68 | 0.0 | 0.0 | 0.00 | 0.00 | 0.00 | 67 | 1027.0 |
| 20260502045120 | 47 | 68 | 0.0 | 0.0 | 0.00 | 0.00 | 0.00 | 66 | 1027.0 |
| 20260502044620 | 47 | 68 | 0.0 | 0.0 | 0.00 | 0.00 | 0.00 | 67 | 1027.0 |
| 20260502044121 | 47 | 68 | 0.0 | 0.0 | 0.00 | 0.00 | 0.00 | 67 | 1027.0 |
| 20260502043621 | 47 | 68 | 0.0 | 0.0 | 0.00 | 0.00 | 0.00 | 66 | 1027.0 |
| 20260502043120 | 47 | 68 | 0.0 | 0.0 | 0.00 | 0.00 | 0.00 | 66 | 1027.0 |
| 20260502042620 | 47 | 68 | 0.0 | 0.0 | 0.00 | 0.00 | 0.00 | 66 | 1027.0 |
| 20260502042121 | 47 | 68 | 0.0 | 0.0 | 0.00 | 0.00 | 0.00 | 65 | 1027.0 |
| 20260502041621 | 47 | 68 | 0.0 | 0.0 | 0.00 | 0.00 | 0.00 | 65 | 1027.0 |